Miscellaneous Local Product
Issued by NWS North Platte, NE

Home | Current Version | Previous Version | Graphics & Text | Print | Product List | Glossary On
Versions: 1 2 3 4 5 6 7 8 9 10 11 12 13 14 15 16 17 18 19 20 21 22 23 24 25 26 27 28 29 30 31 32 33 34 35 36 37 38 39 40 41 42 43 44 45 46 47 48 49 50
000
AXUS43 KLBF 020110
MISLBF


WESTERN AND NORTH CENTRAL NEBRASKA HOURLY WEATHER ROUNDUP
NATIONAL WEATHER SERVICE NORTH PLATTE NE
800 PM CDT TUE SEP 01 2015

NOTE: "FAIR" INDICATES FEW OR NO CLOUDS BELOW 12,000 FEET WITH NO
SIGNIFICANT WEATHER AND/OR OBSTRUCTIONS TO VISIBILITY.

NOTE: STATIONS NOT REPORTING VARIABLES SUCH AS SKY/WEATHER OR
PRESSURE ARE PROVIDED BY THE NEBRASKA DEPARTMENT OF
ROADS...RAWS...AND APRS NETWORKS...AND ARE NOT UNDER
NATIONAL WEATHER SERVICE QUALITY CONTROL.

...OBSERVATIONS IN AND NEAR THE EASTERN PANHANDLE OF NEBRASKA...

CITY           SKY/WX    TMP DP  RH WIND       PRES   REMARKS
PINE RIDGE     CLEAR     83  46  27 NE5       29.85S
CHADRON        CLEAR     87  47  24 S3        29.83S
ALLIANCE       CLEAR     82  47  29 SW7       29.90S
SIDNEY         PTCLDY    83  40  21 S7        29.96S
CRESCENT LAKE    N/A     86  41  20 CALM        N/A
BIG SPRINGS      N/A     83  55  37 SE5         N/A
$$

...OBSERVATIONS IN NORTH CENTRAL NEBRASKA...

CITY           SKY/WX    TMP DP  RH WIND       PRES   REMARKS
VALENTINE      CLEAR     86  59  39 SE13      29.83S
THEDFORD       CLEAR     85  58  40 S7        29.88F
AINSWORTH      CLEAR     80  63  54 SE6       29.85F
O`NEILL        CLEAR     81  69  67 SE5       29.86S
ORD            CLEAR     83  63  50 S8        29.85S
BROKEN BOW     CLEAR     84  66  54 S8        29.88S
SPRINGVIEW       N/A     81  69  65 CALM        N/A
SARGENT          N/A     86  67  53 CALM        N/A
CHAMBERS         N/A     81  66  59 CALM        N/A
EWING            N/A     79  68  68 CALM        N/A
$$

...OBSERVATIONS IN SOUTHWEST NEBRASKA AND FAR NORTHEAST COLORADO...

CITY           SKY/WX    TMP DP  RH WIND       PRES   REMARKS
WRAY           CLOUDY    87  48  25 SE6       29.94S
HOLYOKE        FAIR      81  54  39 SE7       29.93F
IMPERIAL       CLEAR     84  50  30 SE6       29.91F
OGALLALA       CLEAR     85  53  32 SE6       29.90F
NORTH PLATTE   CLEAR     80  66  62 SE6       29.88S
MCCOOK         CLEAR     87  58  37 SE6       29.88S
LEXINGTON      CLEAR     84  65  53 SE9       29.89S
PAXTON           N/A     80  66  62 CALM        N/A
BRADY            N/A     80  68  67 CALM        N/A
CALLAWAY         N/A     77  69  77 SE7         N/A
$$

...OBSERVATIONS IN CENTRAL LINCOLN COUNTY AREA...

CITY           SKY/WX    TMP DP  RH WIND       PRES   REMARKS
N.P. AIRPORT   CLEAR     80  66  62 SE6       29.88S
N.P. DOWNTOWN    N/A     86  59  40 CALM        N/A
N.P. SOUTHEAST   N/A     87  62  43 CALM        N/A
N.P. HILLCREST   N/A     84  61  45 E7          N/A
$$

...SOME OBSERVATIONS FROM AROUND THE REGION...

CITY           SKY/WX    TMP DP  RH WIND       PRES   REMARKS
DENVER         MOCLDY    73  50  44 E10       30.07F
LARAMIE        CLOUDY    68  38  33 W16G22    30.22R
CHEYENNE       MOCLDY    79  36  21 SW7       30.09S
SCOTTSBLUFF    PTCLDY    81  55  40 E6        29.91S
RAPID CITY     CLEAR     78  61  55 NE5       29.85R
PIERRE         CLEAR     81  63  54 SE17      29.76R
WINNER         FAIR      80  65  59 SE10      29.81F
SIOUX FALLS    CLOUDY    75  71  87 E5        29.87F
OMAHA          MOCLDY    83  70  64 SE15      29.89S
GRAND ISLAND   PTCLDY    84  67  56 SE7       29.87S
KANSAS CITY    PTCLDY    77  67  71 S7        30.00R
WICHITA        PTCLDY    84  67  56 SE16      29.94R
HAYS           PTCLDY    91  57  31 S15       29.87S HX  90
LIBERAL        MOCLDY    88  54  31 S12       29.96S
GOODLAND       PTCLDY    83  57  41 S12       29.96R
$$



USA.gov is the U.S. government's official web portal to all federal, state and local government web resources and services.